Location: Central Falls
(41.8900°N, 71.3929°W)
Time: 20:25:35
(UTC+00:00)

Transit 2A - All Passes

Search period start: 06 December 2023 00:00
Search period end: 16 December 2023 00:00
Orbit: 600 x 953 km, 66.7° (Epoch: 06 December)

Date Brightness Start Highest point End Pass type
(mag) Time Alt. Az. Time Alt. Az. Time Alt. Az.
06 Dec - 04:43:55 10° NNW 04:48:15 66° ENE 04:52:42 10° SE night (unlit)
06 Dec - 06:29:09 10° W 06:30:45 12° WSW 06:32:23 10° SW night (unlit)
06 Dec - 19:23:14 10° SSW 19:28:18 53° ESE 19:32:55 10° NE daylight
06 Dec - 21:07:48 10° W 21:11:38 22° NW 21:15:13 10° N daylight
07 Dec - 04:09:08 10° NNW 04:13:16 42° NE 04:17:30 10° SE night (unlit)
07 Dec - 05:52:56 10° WNW 05:56:01 19° WSW 05:59:13 10° SSW night (unlit)
07 Dec - 18:48:46 10° S 18:53:27 35° ESE 18:57:46 10° NE daylight
07 Dec - 20:32:06 10° WSW 20:36:32 30° NW 20:40:40 10° N daylight
08 Dec - 03:34:27 10° N 03:38:14 28° NE 03:42:05 10° ESE night (unlit)
08 Dec - 05:17:26 10° NW 05:21:15 30° WSW 05:25:11 10° S night (unlit)
08 Dec - 18:14:37 10° SSE 18:18:38 23° ESE 18:22:23 10° ENE daylight
08 Dec - 19:56:39 10° SW 20:01:30 44° NW 20:05:58 10° NNE daylight
09 Dec - 02:59:55 10° N 03:03:07 20° NE 03:06:22 10° E night (unlit)
09 Dec - 04:42:13 10° NW 04:46:25 48° WSW 04:50:46 10° S night (unlit)
09 Dec - 17:41:01 10° SE 17:43:52 15° ESE 17:46:35 10° ENE daylight
09 Dec - 19:21:26 10° SW 19:26:32 66° WNW 19:31:11 10° NNE daylight
09 Dec - 21:09:09 10° NW 21:10:25 11° NW 21:11:39 10° NNW daylight
10 Dec - 02:25:40 10° N 02:27:57 14° NE 02:30:15 10° ENE night (unlit)
10 Dec - 04:07:12 10° NNW 04:11:32 78° WSW 04:16:04 10° SSE night (unlit)
10 Dec - 18:46:27 10° SSW 18:51:36 82° ESE 18:56:17 10° NNE daylight
10 Dec - 20:32:20 10° W 20:35:11 15° NW 20:37:54 10° N daylight
11 Dec - 03:32:17 10° NNW 03:36:37 67° ENE 03:41:06 10° SE night (unlit)
11 Dec - 05:17:29 10° W 05:19:08 12° WSW 05:20:49 10° SW night (unlit)
11 Dec - 18:11:42 10° SSW 18:16:42 53° ESE 18:21:16 10° NE daylight
11 Dec - 19:56:16 10° W 20:00:01 21° NW 20:03:33 10° N daylight
12 Dec - 02:57:29 10° NNW 03:01:39 42° NE 03:05:55 10° SE night (unlit)
12 Dec - 04:41:17 10° WNW 04:44:24 19° WSW 04:47:37 10° SSW night (unlit)
12 Dec - 17:37:13 10° S 17:41:50 34° ESE 17:46:06 10° NE daylight
12 Dec - 19:20:33 10° WSW 19:24:55 30° NW 19:29:00 10° N daylight
13 Dec - 02:22:48 10° N 02:26:36 28° NE 02:30:28 10° ESE night (unlit)
13 Dec - 04:05:47 10° NW 04:09:37 30° WSW 04:13:35 10° S night (unlit)
13 Dec - 17:03:04 10° SSE 17:07:01 23° ESE 17:10:43 10° ENE daylight
13 Dec - 18:45:06 10° SW 18:49:53 43° NW 18:54:19 10° NNE daylight
14 Dec - 01:48:17 10° N 01:51:30 20° NE 01:54:46 10° E night (unlit)
14 Dec - 03:30:35 10° NW 03:34:47 48° WSW 03:39:10 10° S night (unlit)
14 Dec - 16:29:30 10° SE 16:32:15 15° ESE 16:34:53 10° ENE daylight
14 Dec - 18:09:53 10° SW 18:14:54 66° WNW 18:19:31 10° NNE daylight
14 Dec - 19:57:42 10° NW 19:58:47 11° NW 19:59:52 10° NNW daylight
15 Dec - 01:14:00 10° N 01:16:19 14° NE 01:18:39 10° ENE night (unlit)
15 Dec - 02:55:32 10° NNW 02:59:54 78° WSW 03:04:27 10° SSE night (unlit)
15 Dec - 17:34:53 10° SSW 17:39:58 82° ESE 17:44:37 10° NNE daylight
15 Dec - 19:20:48 10° W 19:23:33 15° NW 19:26:12 10° N daylight
